Weather History for Gillette, WY

Change the Weather History Date:

Tuesday, May 28, 2013

  Actual Average Record
Temperature  
Mean Temperature 58 °F 56 °F  
Max Temperature 74 °F 70 °F 95 °F (1934)
Min Temperature 42 °F 43 °F 25 °F (1947)
Degree Days  
Heating Degree Days 7 9  
Month to date heating degree days 303 359  
Since 1 July heating degree days 7265 7375  
Cooling Degree Days 0 0  
Month to date cooling degree days 8 0  
Year to date cooling degree days 8 0  
Growing Degree Days 8 (Base 50)    
Moisture  
Dew Point 42 °F    
Average Humidity 60    
Maximum Humidity 89    
Minimum Humidity 31    
Precipitation  
Precipitation T in 0.08 in 0.86 in (1956)
Month to date precipitation 1.43 2.18  
Year to date precipitation 4.55 5.39  
Sea Level Pressure  
Sea Level Pressure 29.65 in    
Wind  
Wind Speed 8 mph (South)    
Max Wind Speed 22 mph    
Max Gust Speed 28 mph    
Visibility 10 miles    
Events Rain , Thunderstorm    
T = Trace of Precipitation, MM = Missing Value Source: NWS Daily Summary

Daily Weather History Graph

Daily Weather History Graph

Search for Another Location

Airport:

Trip Planner

Search our weather history database for the weather conditions in past years. The results will help you decide how hot, cold, wet, or windy it might be!

Date:

Astronomy

May. 28, 2013 Rise Set
Actual Time 5:23 AM MDT 8:36 PM MDT
Civil Twilight 4:48 AM MDT 9:11 PM MDT
Nautical Twilight 4:02 AM MDT 9:57 PM MDT
Astronomical Twilight 3:06 AM MDT 10:53 PM MDT
Moon 11:56 PM MDT (5/28) 9:18 AM MDT (5/28)
Length of Visible Light 16h 23m
Length of Day
15h 12m
Waning Gibbous, 82% of the Moon is Illuminated
May 28
Waning Gibbous
May 31
Last Quarter
Jun 8
New
Jun 16
First Quarter
Jun 23
Full

Hourly Weather History & Observations

Time (MDT) Temp. Windchill Dew Point Humidity Pressure Visibility Wind Dir Wind Speed Gust Speed Precip Events Conditions
12:53 AM 43.0 °F 39.5 °F 39.9 °F 89% 29.74 in 10.0 mi WSW 5.8 mph - N/A   Clear
1:53 AM 43.0 °F 37.7 °F 39.9 °F 89% 29.74 in 10.0 mi SW 9.2 mph - N/A   Clear
2:53 AM 45.0 °F 39.7 °F 39.9 °F 82% 29.74 in 10.0 mi SSW 10.4 mph - N/A   Clear
3:53 AM 44.1 °F 39.5 °F 39.9 °F 85% 29.73 in 10.0 mi SSE 8.1 mph - N/A   Clear
4:53 AM 43.0 °F 37.2 °F 39.0 °F 86% 29.76 in 10.0 mi South 10.4 mph - N/A   Clear
5:53 AM 43.0 °F 39.5 °F 39.9 °F 89% 29.76 in 10.0 mi South 5.8 mph - N/A   Clear
6:53 AM 50.0 °F - 43.0 °F 77% 29.72 in 10.0 mi South 6.9 mph - N/A   Mostly Cloudy
7:53 AM 53.1 °F - 44.1 °F 71% 29.71 in 10.0 mi South 8.1 mph - N/A   Overcast
8:53 AM 55.9 °F - 41.0 °F 57% 29.71 in 10.0 mi South 16.1 mph - N/A   Overcast
9:53 AM 62.1 °F - 42.1 °F 48% 29.68 in 10.0 mi South 15.0 mph - N/A   Clear
10:53 AM 66.0 °F - 39.0 °F 37% 29.67 in 10.0 mi SSE 15.0 mph - N/A   Unknown
11:53 AM 66.9 °F - 39.9 °F 37% 29.64 in 10.0 mi North - - N/A   Partly Cloudy
12:53 PM 69.1 °F - 39.9 °F 35% 29.62 in 10.0 mi SSW 15.0 mph 25.3 mph N/A   Clear
1:53 PM 72.0 °F - 39.9 °F 31% 29.60 in 10.0 mi SW 10.4 mph 24.2 mph N/A   Partly Cloudy
2:53 PM 70.0 °F - 37.9 °F 31% 29.58 in 10.0 mi SW 6.9 mph - N/A   Mostly Cloudy
3:53 PM 70.0 °F - 37.9 °F 31% 29.58 in 10.0 mi South 10.4 mph - N/A   Overcast
4:53 PM 70.0 °F - 37.0 °F 30% 29.56 in 10.0 mi South 12.7 mph - N/A   Unknown
5:53 PM 68.0 °F - 39.9 °F 36% 29.56 in 10.0 mi SW 6.9 mph 19.6 mph 0.00 in Rain Light Rain
6:53 PM 68.0 °F - 42.1 °F 39% 29.54 in 10.0 mi Calm Calm - 0.00 in   Mostly Cloudy
7:25 PM 62.6 °F - 44.6 °F 52% 29.65 in 10.0 mi West 9.2 mph - N/A Thunderstorm Overcast
7:53 PM 59.0 °F - 46.0 °F 62% 29.59 in - NNW 4.6 mph - 0.00 in Thunderstorm Thunderstorm
8:16 PM 60.8 °F - 46.4 °F 59% 29.67 in 10.0 mi ENE 3.5 mph - N/A   Unknown
8:53 PM 54.0 °F - 48.0 °F 80% 29.59 in 10.0 mi SE 3.5 mph - N/A   Clear
9:53 PM 55.9 °F - 48.0 °F 75% 29.61 in 10.0 mi Calm Calm - N/A   Scattered Clouds
10:53 PM 54.0 °F - 48.9 °F 83% 29.60 in 10.0 mi SE 8.1 mph - N/A   Unknown
11:53 PM 53.1 °F - 48.9 °F 86% 29.61 in 10.0 mi Calm Calm - N/A   Scattered Clouds